Location: Betz
(49.1556°N, 2.9558°E)
Time: 06:15:23
(UTC+00:00)

Resurs 01 Rocket - Pass Details

Date: 18 September 2019
Orbit: 635 x 644 km, 98.0° (Epoch: 17 October)

Event Time Altitude Azimuth Distance (km) Brightness Sun altitude
Exits shadow 20:43:17 35° 231° (SW) 1,041 2.7 -26.2°
Maximum altitude 20:44:16 40° 262° (W) 953 2.7 -26.3°
Drops below altitude 10° 20:48:28 10° 332° (NNW) 2,048 5.1 -26.9°
Sets 20:50:49 0° 340° (NNW) 2,964 5.9 -27.2°
